LFMHLFLS

Guest
Details From LFMH - Saint Etienne Boutheon
To LFLS - St Geoirs
Flight Number -
Tags generated
Created
Modified
Stats Distance 47 nm / 87 km
Max Altitude 500 ft / 152 m
Waypoints 3
Social Downloads 0
Likes 0
Share VATSIM

Download

Looking for another format? Having issues loading an existing format? Contact us
Advertisement - Login to hide

Notes

Basic altitude profile: - Ascent Rate: 2500ft/min - Ascent Speed: 250kts - Cruise Altitude: 35000ft - Cruise Speed: 420kts - Descent Rate: 1500ft/min - Descent Speed: 250kts Options: - Use NATs: yes - Use PACOTS: yes - Use low airways: yes - Use high airways: yes

Route

LFMH REPSI LFLS

ID Type Via Altitude (ft/m) Position (lat/lon) Dist (leg/tot) Name
O LFMH APT - 0 / 0 45.54087 / 4.29645 - / 0 nm Saint Etienne Boutheon
REPSI FIX - 500 / 152 45.52250 / 4.27528 1 / 1 nm
O LFLS APT - 0 / 0 45.36118 / 5.32753 45 / 46 nm St Geoirs

Altitude Profile

Advertisement - Login to hide

LFMH

Details ICAO LFMH (EBU)
Name Saint Etienne Boutheon
Region France
Timezone Europe/Paris (UTC+1.0)
Stats Elevation 1,325 ft / 404 m (AMSL)
Location 45.540900° 4.296450°
Runways 1
Magnetic Variation 1.530° E

METAR

LFMH 142130Z AUTO 20011KT 170V230 CAVOK 13/08 Q1010

Decode

TAF

TAF LFMH 142104Z 1421/1515 CNL

Decode

Departure Runways

ID Width Length Bearing (true/mag) Surface Threshold Overrun Markings Lighting
18 148 ft / 45 m 7,568 ft / 2,307 m 174.93° / 173.40° ASPHALT 984 ft / 300 m 0 ft / 0 m PREC-APP EDGE THRESHOLD
36 148 ft / 45 m 7,568 ft / 2,307 m 354.93° / 353.40° ASPHALT 558 ft / 170 m 0 ft / 0 m PREC-APP EDGE THRESHOLD REIL-OMNI

LFLS

Details ICAO LFLS (GNB)
Name Grenoble Isere Airport
Region France
Timezone Europe/Paris (UTC+1.0)
Stats Elevation 1,301 ft / 397 m (AMSL)
Location 45.362500° 5.326270°
Runways 2
Magnetic Variation 1.794° E

METAR

LFLS 142130Z AUTO 06007KT 050V120 9999 FEW058 SCT078 BKN100 08/07 Q1011

Decode

TAF

TAF LFLS 142006Z 1420/1515 CNL

Decode

Destination Runways

ID Width Length Bearing (true/mag) Surface Threshold Overrun Markings Lighting
09 148 ft / 45 m 10,016 ft / 3,053 m 90.21° / 88.42° CONCRETE 0 ft / 0 m 0 ft / 0 m PREC-APP CENTERLINE EDGE THRESHOLD CALVERT
09R 164 ft / 50 m 2,956 ft / 901 m 90.18° / 88.39° GRASS 0 ft / 0 m 0 ft / 0 m NONE CENTERLINE EDGE THRESHOLD
27 148 ft / 45 m 10,016 ft / 3,053 m 270.24° / 268.44° CONCRETE 0 ft / 0 m 0 ft / 0 m PREC-APP CENTERLINE EDGE THRESHOLD CALVERT
27L 164 ft / 50 m 2,956 ft / 901 m 270.19° / 268.39° GRASS 0 ft / 0 m 0 ft / 0 m NONE CENTERLINE EDGE THRESHOLD

Approach Navaids

Runway Type Ident Frequency Range Bearing (true/mag) Slope Elevation
09 LOC-ILS SG 109.30 MHz 27 nm / 50 km 90.23° / 88.44 ° - 1,302 ft / 397 m (AMSL)
09 GS SG 109.30 MHz 27 nm / 50 km 90.22° / 88.43 ° 3.00° 1,301 ft / 397 m (AMSL)
09 DME SG 109.30 MHz 27 nm / 50 km - - 1,302 ft / 397 m (AMSL)

Popular Alternatives